TimeIST,TemperatureF,Dew PointF,Humidity,Sea Level PressureIn,VisibilityMPH,Wind Direction,Wind SpeedMPH,Gust SpeedMPH,PrecipitationIn,Events,Conditions,WindDirDegrees,DateUTC
1:00 AM,45,44,94,29.49,,SW,8.9,,,,,230,2013-06-15 00:00:00
6:00 AM,42.8,41.0,93,29.47,6.2,SW,10.4,-,N/A,,Scattered Clouds,230,2013-06-15 05:00:00
7:00 AM,44,43,93,29.51,37,SW,8.9,,,,Partly Cloudy,220,2013-06-15 06:00:00
7:00 AM,44.6,42.8,93,29.47,6.2,SW,8.1,-,N/A,,Partly Cloudy,220,2013-06-15 06:00:00
7:30 AM,46.4,42.8,87,29.50,6.2,SW,9.2,-,N/A,,Scattered Clouds,220,2013-06-15 06:30:00
8:00 AM,48.2,44.6,87,29.50,6.2,SW,9.2,-,N/A,,Scattered Clouds,220,2013-06-15 07:00:00
8:30 AM,50.0,44.6,82,29.50,6.2,SW,9.2,-,N/A,,Scattered Clouds,230,2013-06-15 07:30:00
9:00 AM,51.8,44.6,76,29.50,6.2,WSW,9.2,-,N/A,,Scattered Clouds,240,2013-06-15 08:00:00
9:30 AM,51.8,44.6,76,29.50,6.2,WSW,13.8,-,N/A,,Scattered Clouds,250,2013-06-15 08:30:00
10:00 AM,50.0,44.6,82,29.50,6.2,WSW,13.8,-,N/A,,Mostly Cloudy,250,2013-06-15 09:00:00
10:30 AM,51.8,44.6,76,29.53,6.2,WSW,15.0,-,N/A,,Scattered Clouds,250,2013-06-15 09:30:00
11:00 AM,53.6,42.8,67,29.53,6.2,WSW,13.8,-,N/A,,Mostly Cloudy,250,2013-06-15 10:00:00
11:30 AM,55.4,46.4,72,29.53,6.2,SW,11.5,-,N/A,,Mostly Cloudy,230,2013-06-15 10:30:00
12:00 PM,57.2,44.6,63,29.53,6.2,West,15.0,-,N/A,,Scattered Clouds,260,2013-06-15 11:00:00
12:30 PM,57.2,42.8,59,29.53,6.2,WSW,15.0,-,N/A,,Scattered Clouds,240,2013-06-15 11:30:00
1:00 PM,58,45,51,29.57,31,WSW,17.9,,,,Partly Cloudy,250,2013-06-15 12:00:00
1:00 PM,57.2,44.6,63,29.56,6.2,WSW,17.3,-,N/A,,Mostly Cloudy,250,2013-06-15 12:00:00
1:30 PM,57.2,44.6,63,29.56,6.2,West,16.1,-,N/A,,Mostly Cloudy,270,2013-06-15 12:30:00
2:00 PM,59.0,46.4,63,29.56,6.2,West,17.3,-,N/A,,Mostly Cloudy,260,2013-06-15 13:00:00
2:30 PM,57.2,44.6,63,29.56,6.2,West,16.1,-,N/A,,Mostly Cloudy,270,2013-06-15 13:30:00
3:00 PM,60.8,44.6,55,29.56,6.2,West,17.3,-,N/A,,Mostly Cloudy,260,2013-06-15 14:00:00
3:30 PM,60.8,44.6,55,29.56,6.2,WSW,16.1,-,N/A,,Scattered Clouds,250,2013-06-15 14:30:00
4:00 PM,60.8,46.4,59,29.59,6.2,West,16.1,-,N/A,,Scattered Clouds,260,2013-06-15 15:00:00
4:30 PM,60.8,46.4,59,29.59,6.2,WSW,18.4,-,N/A,,Scattered Clouds,250,2013-06-15 15:30:00
5:00 PM,60.8,46.4,59,29.59,6.2,West,18.4,-,N/A,,Scattered Clouds,260,2013-06-15 16:00:00
5:30 PM,57.2,44.6,63,29.59,6.2,West,18.4,-,N/A,,Scattered Clouds,260,2013-06-15 16:30:00
6:00 PM,57.2,42.8,59,29.62,6.2,West,12.7,-,N/A,,Scattered Clouds,280,2013-06-15 17:00:00
7:00 PM,56,47,63,29.64,22,WSW,11.2,,,,Partly Cloudy,250,2013-06-15 18:00:00
7:00 PM,55.4,46.4,72,29.62,6.2,WSW,11.5,-,N/A,,Scattered Clouds,250,2013-06-15 18:00:00